Location: Unspecified
(0.0000°N, 0.0000°E)
Time: 17:52:25
(UTC+00:00)

STARLINK 1043 - Pass Details

Date: 22 January 2020
Orbit: 548 x 551 km, 53.0° (Epoch: 17 January)

Event Time Altitude Azimuth Distance (km) Brightness Sun altitude
Rises 03:46:37 0° 182° (S) 2,713 7.4 -33.7°
Reaches altitude 10° 03:49:58 10° 153° (SSE) 1,817 6.8 -33.0°
Maximum altitude 03:51:53 13° 125° (SE) 1,632 6.8 -32.5°
Drops below altitude 10° 03:53:49 10° 97° (E) 1,814 7.0 -32.1°
Sets 03:57:08 0° 69° (ENE) 2,703 7.7 -31.3°
